Satellite: NO-44
Catalog number: 26931
Epoch time:      06284.70642186
Element set:    0423
Inclination:      067.0521 deg
RA of node:       067.5463 deg
Eccentricity:    0.0004961
Arg of perigee:   254.2944 deg
Mean anomaly:     105.7630 deg
Mean motion:   14.29455478 rev/day
Decay rate:       1.20e-06 rev/day^2
Epoch rev:           26258
Checksum:              301

Satellite: SO-50
Catalog number: 27607
Epoch time:      06284.74596761
Element set:    0144
Inclination:      064.5570 deg
RA of node:       119.2693 deg
Eccentricity:    0.0035096
Arg of perigee:   097.9534 deg
Mean anomaly:     262.5542 deg
Mean motion:   14.71180260 rev/day
Decay rate:       -3.4e-07 rev/day^2
Epoch rev:           20457
Checksum:              312

Satellite: CO-55
Catalog number: 27844
Epoch time:      06284.59945711
Element set:     868
Inclination:      098.7230 deg
RA of node:       291.2944 deg
Eccentricity:    0.0010700
Arg of perigee:   087.5150 deg
Mean anomaly:     272.7250 deg
Mean motion:   14.20462300 rev/day
Decay rate:        7.6e-07 rev/day^2
Epoch rev:           17018
Checksum:              300

Satellite: CO-57
Catalog number: 27848
Epoch time:      06285.57516949
Element set:     834
Inclination:      098.7212 deg
RA of node:       291.5504 deg
Eccentricity:    0.0010681
Arg of perigee:   087.7669 deg
Mean anomaly:     272.4731 deg
Mean motion:   14.20287787 rev/day
Decay rate:        8.0e-08 rev/day^2
Epoch rev:           17030
Checksum:              340

Satellite: AO-51
Catalog number: 28375
Epoch time:      06285.60210605
Element set:     649
Inclination:      098.1511 deg
RA of node:       332.2060 deg
Eccentricity:    0.0083141
Arg of perigee:   212.2259 deg
Mean anomaly:     147.3838 deg
Mean motion:   14.40536261 rev/day
Decay rate:        2.1e-07 rev/day^2
Epoch rev:           12006
Checksum:              261

Satellite: CO-56
Catalog number: 28941
Epoch time:      06284.82471623
Element set:    0240
Inclination:      098.1695 deg
RA of node:       314.8384 deg
Eccentricity:    0.0266875
Arg of perigee:   065.6831 deg
Mean anomaly:     297.2024 deg
Mean motion:   15.28818232 rev/day
Decay rate:     1.8554e-04 rev/day^2
Epoch rev:           03534
Checksum:              338

/EX
SB KEPS @ AMSAT  $ORB06285.W
Orbital Elements  06285.WEATHER

HR AMSAT ORBITAL ELEMENTS FOR WEATHER SATELLITES
FROM WA5QGD FORT WORTH,TX October 12, 2006
Send SUBSCRIBE KEPS/UNSUBSCRIBE KEPS to majordomo@amsat.org only
BID: ORB06285.W
TO ALL RADIO AMATEURS BT

Satellite: NOAA-10
Catalog number: 16969
Epoch time:      06285.49522305
Element set:     379
Inclination:      098.7584 deg
RA of node:       297.3787 deg
Eccentricity:    0.0012342
Arg of perigee:   165.5819 deg
Mean anomaly:     194.5726 deg
Mean motion:   14.27305664 rev/day
Decay rate:       -1.9e-07 rev/day^2
Epoch rev:            4389
Checksum:              351

Satellite: NOAA-11
Catalog number: 19531
Epoch time:      06285.11948873
Element set:     326
Inclination:      098.8236 deg
RA of node:       012.2547 deg
Eccentricity:    0.0011921
Arg of perigee:   020.4861 deg
Mean anomaly:     339.6768 deg
Mean motion:   14.14819175 rev/day
Decay rate:      -1.53e-06 rev/day^2
Epoch rev:           93107
Checksum:              309

Satellite: NOAA-12
Catalog number: 21263
Epoch time:      06285.46416584
Element set:     820
Inclination:      098.7403 deg
RA of node:       278.3077 deg
Eccentricity:    0.0013542
Arg of perigee:   105.5666 deg
Mean anomaly:     254.7034 deg
Mean motion:   14.25509574 rev/day
Decay rate:       -4.9e-07 rev/day^2
Epoch rev:           80095
Checksum:              309

Satellite: MET-3/5
Catalog number: 21655
Epoch time:      06284.90360819
Element set:    0214
Inclination:      082.5568 deg
RA of node:       178.3451 deg
Eccentricity:    0.0013997
Arg of perigee:   106.2531 deg
Mean anomaly:     254.0135 deg
Mean motion:   13.17007682 rev/day
Decay rate:        5.1e-07 rev/day^2
Epoch rev:           72872
Checksum:              298

Satellite: MET-2/21
Catalog number: 22782
Epoch time:      06285.54488363
Element set:     639
Inclination:      082.5473 deg
RA of node:       238.3383 deg
Eccentricity:    0.0021357
Arg of perigee:   207.6077 deg
Mean anomaly:     152.3943 deg
Mean motion:   13.83609455 rev/day
Decay rate:       -8.1e-07 rev/day^2
Epoch rev:           66227
Checksum:              327

Satellite: OKEAN-4
Catalog number: 23317
Epoch time:      06284.72409112
Element set:    0075
Inclination:      082.5407 deg
RA of node:       168.3188 deg
Eccentricity:    0.0022561
Arg of perigee:   355.5814 deg
Mean anomaly:     004.5203 deg
Mean motion:   14.82408397 rev/day
Decay rate:       2.85e-06 rev/day^2
Epoch rev:           64724
Checksum:              294

Satellite: NOAA-14
Catalog number: 23455
Epoch time:      06285.36431013
Element set:     319
Inclination:      099.0250 deg
RA of node:       344.8143 deg
Eccentricity:    0.0010053
Arg of perigee:   082.2755 deg
Mean anomaly:     277.9579 deg
Mean motion:   14.13670996 rev/day
Decay rate:       3.63e-06 rev/day^2
Epoch rev:           60762
Checksum:              304

Satellite: SICH-1
Catalog number: 23657
Epoch time:      06284.72978935
Element set:    0877
Inclination:      082.5256 deg
RA of node:       309.2132 deg
Eccentricity:    0.0023703
Arg of perigee:   344.3538 deg
Mean anomaly:     015.6965 deg
Mean motion:   14.81398039 rev/day
Decay rate:       2.13e-06 rev/day^2
Epoch rev:           59924
Checksum:              332

